Location: Saint-Palais-sur-Mer
(45.6429°N, 1.0859°W)
Time: 21:04:58
(UTC+02:00)

ISS - Visible Passes

Search period start: 25 September 2020 00:00
Search period end: 05 October 2020 00:00
Orbit: 419 x 420 km, 51.6° (Epoch: 26 September)

Date Brightness Start Highest point End Pass type
(mag) Time Alt. Az. Time Alt. Az. Time Alt. Az.
25 Sep -2.3 20:56:18 10° WNW 20:59:22 31° N 21:02:08 12° NE visible
25 Sep -1.1 22:33:41 10° NW 22:35:06 20° NW 22:35:06 20° NW visible
26 Sep -2.3 21:46:14 10° WNW 21:49:14 29° N 21:49:28 29° NNE visible
27 Sep -2.2 20:58:42 10° WNW 21:01:41 28° N 21:03:50 15° NE visible
27 Sep -0.9 22:35:42 10° NW 22:36:47 18° NW 22:36:47 18° NW visible
28 Sep -2.6 21:48:18 10° NW 21:51:09 37° N 21:51:09 37° N visible
29 Sep -2.5 21:00:52 10° NW 21:03:58 32° N 21:05:30 21° ENE visible
29 Sep -0.7 22:37:40 10° WNW 22:38:28 16° WNW 22:38:28 16° WNW visible
30 Sep -2.4 20:13:23 10° WNW 20:16:24 29° N 20:19:24 10° ENE visible
30 Sep -2.9 21:50:14 10° WNW 21:52:51 48° NW 21:52:51 48° NW visible
01 Oct -3.3 21:02:48 10° NW 21:06:06 49° NNE 21:07:15 33° ENE visible
01 Oct -0.5 22:39:46 10° WNW 22:40:13 13° W 22:40:13 13° W visible
02 Oct -2.9 20:15:23 10° NW 20:18:34 38° NNE 20:21:42 10° E visible
02 Oct -2.5 21:52:11 10° WNW 21:54:40 40° W 21:54:40 40° W visible
03 Oct -3.8 21:04:40 10° WNW 21:08:04 82° SSW 21:09:10 40° SE visible
04 Oct -3.7 20:17:13 10° WNW 20:20:35 68° NNE 20:23:45 11° ESE visible
04 Oct -1.5 21:54:30 10° W 21:56:43 21° SW 21:56:43 21° SW visible
